Weather History for Newburgh, NY

Change the Weather History Date:

Thursday, May 16, 2013

  Actual Average Record
Temperature  
Mean Temperature 66 °F -  
Max Temperature 80 °F 66 °F 86 °F (1998)
Min Temperature 51 °F 45 °F 33 °F (1987)
Growing Degree Days 16 (Base 50)    
Moisture  
Dew Point 45 °F    
Average Humidity 49    
Maximum Humidity 94    
Minimum Humidity 24    
Precipitation  
Precipitation 0.00 in - - ()
Sea Level Pressure  
Sea Level Pressure 29.77 in    
Wind  
Wind Speed 9 mph (WNW)    
Max Wind Speed 18 mph    
Max Gust Speed 31 mph    
Visibility 16 miles    
Events      
Averages and records for this station are not official NWS values.
T = Trace of Precipitation, MM = Missing Value Source: NWS Daily Summary

Daily Weather History Graph

Daily Weather History Graph

Search for Another Location

Airport:

Trip Planner

Search our weather history database for the weather conditions in past years. The results will help you decide how hot, cold, wet, or windy it might be!

Date:

Astronomy

May. 16, 2013 Rise Set
Actual Time 5:36 AM EDT 8:10 PM EDT
Civil Twilight 5:04 AM EDT 8:41 PM EDT
Nautical Twilight 4:24 AM EDT 9:21 PM EDT
Astronomical Twilight 3:40 AM EDT 10:06 PM EDT
Moon 11:08 AM EDT (5/16) 12:28 AM EDT (5/16)
Length of Visible Light 15h 37m
Length of Day
14h 33m
Waxing Crescent, 35% of the Moon is Illuminated
May 16
Waxing Crescent
May 18
First Quarter
May 25
Full
May 31
Last Quarter
Jun 8
New

Hourly Weather History & Observations

Time (EDT) Temp. Dew Point Humidity Pressure Visibility Wind Dir Wind Speed Gust Speed Precip Events Conditions
2:45 AM 55.4 °F 53.6 °F 94% 29.74 in 10.0 mi WNW 6.9 mph - N/A   Clear
3:45 AM 53.6 °F 51.8 °F 94% 29.74 in 10.0 mi WNW 6.9 mph - N/A   Clear
4:45 AM 51.8 °F 50.0 °F 94% 29.74 in 10.0 mi West 5.8 mph - N/A   Scattered Clouds
6:45 AM 55.4 °F 51.8 °F 88% 29.78 in 20.0 mi Calm Calm - N/A   Scattered Clouds
7:45 AM 59.0 °F 53.6 °F 82% 29.80 in 20.0 mi West 6.9 mph - N/A   Scattered Clouds
8:45 AM - - N/A% 29.81 in 20.0 mi West 9.2 mph - N/A   Scattered Clouds
9:45 AM 69.8 °F 44.6 °F 40% 29.81 in 20.0 mi WNW 9.2 mph 17.3 mph N/A   Scattered Clouds
10:45 AM 71.6 °F 46.4 °F 41% 29.79 in 20.0 mi West 13.8 mph - N/A   Scattered Clouds
11:45 AM 75.2 °F 42.8 °F 31% 29.78 in 20.0 mi WNW 13.8 mph - N/A   Scattered Clouds
12:45 PM 77.0 °F 41.0 °F 28% 29.76 in 20.0 mi WNW 16.1 mph 24.2 mph N/A   Scattered Clouds
1:45 PM 78.8 °F 46.4 °F 32% 29.75 in 20.0 mi West 16.1 mph - N/A   Scattered Clouds
3:45 PM 80.6 °F 44.6 °F 28% 29.74 in 20.0 mi WNW 17.3 mph 28.8 mph N/A   Scattered Clouds
4:45 PM 80.6 °F 42.8 °F 26% 29.73 in 20.0 mi WNW 17.3 mph 31.1 mph N/A   Scattered Clouds
5:45 PM 78.8 °F 39.2 °F 24% 29.73 in 20.0 mi WNW 18.4 mph 26.5 mph N/A   Partly Cloudy
6:45 PM 78.8 °F 39.2 °F 24% 29.74 in 20.0 mi WNW 16.1 mph 25.3 mph N/A   Partly Cloudy
7:45 PM 75.2 °F 41.0 °F 29% 29.76 in 20.0 mi WNW 8.1 mph - N/A   Partly Cloudy
8:45 PM 69.8 °F 44.6 °F 40% 29.78 in 10.0 mi West 5.8 mph - N/A   Clear
9:45 PM 64.4 °F 44.6 °F 49% 29.82 in 10.0 mi WNW 5.8 mph - N/A   Clear
10:45 PM 64.4 °F 41.0 °F 42% 29.84 in 10.0 mi WNW 6.9 mph - N/A   Clear
11:45 PM 62.6 °F 41.0 °F 45% 29.86 in 10.0 mi NW 6.9 mph - N/A   Clear